Guymon, OK

11:53 PM CDT on June 26, 2017 (GMT -0500)
Guymon Municipal

Weather History for KGUY - October, 2014

Change the Weather History Date:

Wednesday, October 8, 2014

  Actual Average Record
Temperature  
Mean Temperature 68 °F 60 °F  
Max Temperature 82 °F 75 °F 91 °F (2001)
Min Temperature 54 °F 45 °F 29 °F (2000)
Degree Days  
Heating Degree Days 0 6  
Month to date heating degree days 22 41  
Since 1 July heating degree days 52 84  
Cooling Degree Days 3 2  
Month to date cooling degree days 10 17  
Year to date cooling degree days 1683 1471  
Growing Degree Days 18 (Base 50)    
Moisture  
Dew Point 52 °F    
Average Humidity 57    
Maximum Humidity 77    
Minimum Humidity 36    
Precipitation  
Precipitation 0.00 in 0.05 in 1.98 in (1999)
Month to date precipitation T 0.50  
Year to date precipitation 10.29 17.06  
Snow  
Snow 0.00 in - - ()
Month to date snowfall 0.0  
Since 1 July snowfall 0.0  
Since 1 September snowfall 0.0  
Snow Depth 0.00 in    
Sea Level Pressure  
Sea Level Pressure 29.86 in    
Wind  
Wind Speed 5 mph (ENE)    
Max Wind Speed 13 mph    
Max Gust Speed 17 mph    
Visibility 10 miles    
Events      
T = Trace of Precipitation, MM = Missing Value Source: NWS Daily Summary

Daily Weather History Graph

Daily Weather History Graph

Search for Another Location

Airport or City:

Trip Planner

Search our weather history database for the weather conditions in past years. The results will help you decide how hot, cold, wet, or windy it might be!

Date:

Astronomy

Oct. 08, 2014 Rise Set
Actual Time 7:47 AM CDT 7:19 PM CDT
Civil Twilight 7:21 AM CDT 7:45 PM CDT
Nautical Twilight 6:51 AM CDT 8:14 PM CDT
Astronomical Twilight 6:21 AM CDT 8:44 PM CDT
Moon 7:36 PM CDT (10/8) 7:55 AM CDT (10/8)
Length of Visible Light 12h 23m
Length of Day
11h 31m
Full, 100% of the Moon is Illuminated
Oct 8
Full
Oct 15
Last Quarter
Oct 23
New
Oct 30
First Quarter
Nov 6
Full

Hourly Weather History & Observations

Time (CDT) Temp. Heat Index Dew Point Humidity Pressure Visibility Wind Dir Wind Speed Gust Speed Precip Events Conditions
12:53 AM 64.9 °F - 43.0 °F 45% 29.86 in 10.0 mi ENE 8.1 mph - N/A   Clear
1:53 AM 63.0 °F - 43.0 °F 48% 29.85 in 10.0 mi ENE 10.4 mph - N/A   Clear
2:53 AM 63.0 °F - 45.0 °F 52% 29.86 in 10.0 mi East 10.4 mph - N/A   Clear
3:53 AM 62.1 °F - 46.9 °F 58% 29.86 in 10.0 mi ENE 6.9 mph - N/A   Clear
4:53 AM 60.1 °F - 48.0 °F 64% 29.85 in 10.0 mi NE 3.5 mph - N/A   Clear
5:53 AM 57.9 °F - 48.0 °F 70% 29.86 in 10.0 mi NNE 4.6 mph - N/A   Clear
6:53 AM 55.0 °F - 48.0 °F 77% 29.88 in 10.0 mi North 5.8 mph - N/A   Clear
7:53 AM 55.9 °F - 48.9 °F 77% 29.90 in 10.0 mi NNW 6.9 mph - N/A   Clear
8:53 AM 57.0 °F - 50.0 °F 77% 29.92 in 10.0 mi NNW 6.9 mph - N/A   Clear
9:43 AM 61.0 °F - 53.1 °F 75% 30.03 in 10.0 mi NNE 6.9 mph - N/A   Mostly Cloudy
9:53 AM 62.1 °F - 53.1 °F 72% 29.93 in 10.0 mi NNE 6.9 mph - N/A   Overcast
10:53 AM 64.9 °F - 55.0 °F 70% 29.92 in 10.0 mi NNE 8.1 mph - N/A   Overcast
11:23 AM 66.9 °F - 55.9 °F 68% 30.03 in 10.0 mi East 4.6 mph - N/A   Scattered Clouds
11:53 AM 66.9 °F - 57.0 °F 70% 29.92 in 10.0 mi Calm Calm - N/A   Clear
12:53 PM 70.0 °F - 57.0 °F 63% 29.91 in 10.0 mi Calm Calm - N/A   Clear
1:53 PM 72.0 °F - 55.9 °F 57% 29.88 in 10.0 mi NE 3.5 mph - N/A   Clear
2:53 PM 75.9 °F - 54.0 °F 46% 29.84 in 10.0 mi SE 5.8 mph - N/A   Clear
3:53 PM 79.0 °F - 54.0 °F 42% 29.81 in 10.0 mi East 5.8 mph - N/A   Clear
4:53 PM 82.0 °F 81.2 °F 53.1 °F 37% 29.79 in 10.0 mi SSE 5.8 mph - N/A   Clear
5:53 PM 81.0 °F - 52.0 °F 36% 29.79 in 10.0 mi SE 3.5 mph - N/A   Clear
6:53 PM 80.1 °F - 52.0 °F 38% 29.79 in 10.0 mi Calm Calm - N/A   Clear
7:53 PM 75.9 °F - 52.0 °F 43% 29.79 in 10.0 mi ESE 4.6 mph - N/A   Clear
8:53 PM 73.0 °F - 52.0 °F 48% 29.81 in 10.0 mi Calm Calm - N/A   Clear
9:53 PM 73.0 °F - 51.1 °F 46% 29.80 in 10.0 mi Calm Calm - N/A   Clear
10:53 PM 73.0 °F - 55.0 °F 53% 29.79 in 10.0 mi South 10.4 mph - N/A   Clear
11:53 PM 73.9 °F - 57.9 °F 57% 29.78 in 10.0 mi South 9.2 mph - N/A   Clear